• In Hungary
  • List of Countries
  • For 7 days
  • Water Temperature
  • Satellite Maps
  • Weather Map
  • News
  • Weather Widgets
  • user-avatar
    Login

    Hourly Weather Crevillente

    Today, 23 January, Tuesday

    Time Temperature Precipitation Wind Pressure Humidity
    00:00 +13°C° 0 mm 3 mps 758 mmHg 55%
    01:00 +13°C° 0 mm 2 mps 758 mmHg 55%
    02:00 +13°C° 0 mm 2 mps 758 mmHg 56%
    03:00 +12°C° 0 mm 2 mps 758 mmHg 57%
    04:00 +12°C° 0 mm 2 mps 758 mmHg 58%
    05:00 +12°C° 0 mm 2 mps 758 mmHg 59%
    06:00 +10°C° 0 mm 2 mps 758 mmHg 61%
    07:00 +13°C° 0 mm 2 mps 759 mmHg 56%
    08:00 +14°C° 0 mm 2 mps 759 mmHg 51%
    09:00 +16°C° 0 mm 1 mps 759 mmHg 47%
    10:00 +18°C° 0 mm 1 mps 759 mmHg 43%
    11:00 +20°C° 0 mm 1 mps 759 mmHg 40%
    12:00 +21°C° 0 mm 1 mps 759 mmHg 37%
    13:00 +21°C° 0 mm 2 mps 759 mmHg 36%
    14:00 +21°C° 0 mm 2 mps 759 mmHg 36%
    15:00 +21°C° 0 mm 2 mps 758 mmHg 35%
    16:00 +19°C° 0 mm 2 mps 759 mmHg 44%
    17:00 +17°C° 0 mm 2 mps 759 mmHg 53%
    18:00 +15°C° 0 mm 1 mps 759 mmHg 62%
    19:00 +14°C° 0 mm 1 mps 759 mmHg 67%
    20:00 +13°C° 0 mm 1 mps 759 mmHg 71%
    21:00 +13°C° 0 mm 1 mps 760 mmHg 76%
    22:00 +12°C° 0 mm 1 mps 760 mmHg 78%
    23:00 +12°C° 0 mm 1 mps 760 mmHg 80%

    Tomorrow, 24 January, Wednesday

    Time Temperature Precipitation Wind Pressure Humidity
    00:00 +11°C° 0 mm 1 mps 760 mmHg 82%
    01:00 +10°C° 0 mm 0 mps 760 mmHg 82%
    02:00 +10°C° 0 mm 0 mps 760 mmHg 82%
    03:00 +10°C° 0 mm 0 mps 759 mmHg 83%
    04:00 +9°C° 0 mm 0 mps 759 mmHg 83%
    05:00 +9°C° 0 mm 0 mps 759 mmHg 83%
    06:00 +9°C° 0 mm 0 mps 759 mmHg 83%
    07:00 +11°C° 0 mm 0 mps 759 mmHg 77%
    08:00 +12°C° 0 mm 0 mps 760 mmHg 71%
    09:00 +14°C° 0 mm 0 mps 760 mmHg 65%
    10:00 +16°C° 0 mm 1 mps 760 mmHg 60%
    11:00 +19°C° 0 mm 1 mps 760 mmHg 55%
    12:00 +19°C° 0 mm 2 mps 760 mmHg 50%
    13:00 +19°C° 0 mm 2 mps 759 mmHg 49%
    14:00 +20°C° 0 mm 2 mps 759 mmHg 48%
    15:00 +20°C° 0 mm 2 mps 758 mmHg 47%
    16:00 +18°C° 0 mm 2 mps 758 mmHg 57%
    17:00 +16°C° 0 mm 2 mps 758 mmHg 66%
    18:00 +14°C° 0 mm 1 mps 758 mmHg 75%
    19:00 +13°C° 0 mm 1 mps 758 mmHg 79%
    20:00 +13°C° 0 mm 1 mps 758 mmHg 82%
    21:00 +12°C° 0 mm 1 mps 758 mmHg 85%
    22:00 +12°C° 0 mm 1 mps 758 mmHg 85%
    23:00 +11°C° 0 mm 1 mps 758 mmHg 86%

    Day after tomorrow, 25 January, Thursday

    Time Temperature Precipitation Wind Pressure Humidity
    00:00 +11°C° 0 mm 1 mps 758 mmHg 86%
    01:00 +11°C° 0 mm 1 mps 757 mmHg 86%
    02:00 +11°C° 0 mm 1 mps 757 mmHg 85%
    03:00 +10°C° 0 mm 1 mps 757 mmHg 85%
    04:00 +10°C° 0 mm 1 mps 756 mmHg 84%
    05:00 +10°C° 0 mm 1 mps 756 mmHg 82%
    06:00 +10°C° 0 mm 1 mps 756 mmHg 81%
    07:00 +12°C° 0 mm 1 mps 756 mmHg 73%
    08:00 +13°C° 0 mm 2 mps 757 mmHg 66%
    09:00 +15°C° 0 mm 2 mps 757 mmHg 58%
    10:00 +17°C° 0 mm 2 mps 756 mmHg 52%
    11:00 +18°C° 0 mm 2 mps 756 mmHg 45%
    12:00 +20°C° 0 mm 3 mps 755 mmHg 39%
    13:00 +20°C° 0 mm 3 mps 755 mmHg 37%
    14:00 +20°C° 0 mm 3 mps 754 mmHg 36%
    15:00 +21°C° 0 mm 4 mps 753 mmHg 35%
    16:00 +19°C° 0 mm 4 mps 753 mmHg 44%
    17:00 +17°C° 0 mm 3 mps 753 mmHg 52%
    18:00 +14°C° 0 mm 3 mps 753 mmHg 60%
    19:00 +13°C° 0 mm 3 mps 753 mmHg 62%
    20:00 +13°C° 0 mm 4 mps 753 mmHg 64%
    21:00 +13°C° 0 mm 4 mps 754 mmHg 66%
    22:00 +12°C° 0 mm 5 mps 754 mmHg 65%
    23:00 +12°C° 0 mm 5 mps 754 mmHg 64%

    26 January, Friday

    Time Temperature Precipitation Wind Pressure Humidity
    00:00 +11°C° 0 mm 6 mps 754 mmHg 63%
    01:00 +10°C° 0 mm 7 mps 754 mmHg 64%
    02:00 +10°C° 0 mm 8 mps 754 mmHg 64%
    03:00 +8°C° 0 mm 9 mps 754 mmHg 64%
    04:00 +7°C° 0 mm 9 mps 754 mmHg 62%
    05:00 +7°C° 0 mm 9 mps 754 mmHg 60%
    06:00 +6°C° 0 mm 10 mps 755 mmHg 58%
    07:00 +6°C° 0 mm 10 mps 755 mmHg 56%
    08:00 +7°C° 0 mm 10 mps 756 mmHg 54%
    09:00 +7°C° 0 mm 11 mps 757 mmHg 53%
    10:00 +8°C° 0 mm 11 mps 757 mmHg 47%
    11:00 +9°C° 0 mm 10 mps 757 mmHg 41%
    12:00 +11°C° 0 mm 10 mps 757 mmHg 35%
    13:00 +12°C° 0 mm 10 mps 757 mmHg 33%
    14:00 +12°C° 0 mm 10 mps 757 mmHg 31%
    15:00 +13°C° 0 mm 9 mps 757 mmHg 29%
    16:00 +12°C° 0 mm 8 mps 758 mmHg 32%
    17:00 +11°C° 0 mm 7 mps 758 mmHg 35%
    18:00 +10°C° 0 mm 6 mps 759 mmHg 38%
    19:00 +9°C° 0 mm 6 mps 759 mmHg 41%
    20:00 +9°C° 0 mm 6 mps 760 mmHg 43%
    21:00 +8°C° 0 mm 6 mps 760 mmHg 46%
    22:00 +8°C° 0 mm 7 mps 760 mmHg 48%
    23:00 +8°C° 0 mm 7 mps 760 mmHg 50%

    27 January, Saturday

    Time Temperature Precipitation Wind Pressure Humidity
    00:00 +6°C° 0 mm 8 mps 760 mmHg 53%
    01:00 +6°C° 0 mm 8 mps 760 mmHg 53%
    02:00 +5°C° 0 mm 8 mps 760 mmHg 54%
    03:00 +5°C° 0 mm 8 mps 760 mmHg 55%
    04:00 +5°C° 0 mm 8 mps 760 mmHg 56%
    05:00 +4°C° 0 mm 7 mps 760 mmHg 57%
    06:00 +4°C° 0 mm 7 mps 760 mmHg 59%
    07:00 +5°C° 0 mm 7 mps 760 mmHg 56%
    08:00 +6°C° 0 mm 8 mps 761 mmHg 53%
    09:00 +6°C° 0 mm 9 mps 761 mmHg 50%
    10:00 +9°C° 0 mm 8 mps 761 mmHg 44%
    11:00 +10°C° 0 mm 8 mps 761 mmHg 38%
    12:00 +12°C° 0 mm 8 mps 761 mmHg 33%
    13:00 +12°C° 0 mm 7 mps 760 mmHg 32%
    14:00 +14°C° 0 mm 7 mps 760 mmHg 30%
    15:00 +14°C° 0 mm 6 mps 759 mmHg 29%
    16:00 +12°C° 0 mm 5 mps 760 mmHg 35%
    17:00 +11°C° 0 mm 4 mps 760 mmHg 40%
    18:00 +10°C° 0 mm 4 mps 760 mmHg 46%
    19:00 +9°C° 0 mm 3 mps 761 mmHg 50%
    20:00 +8°C° 0 mm 3 mps 761 mmHg 55%
    21:00 +7°C° 0 mm 2 mps 761 mmHg 59%
    22:00 +7°C° 0 mm 2 mps 761 mmHg 59%
    23:00 +5°C° 0 mm 3 mps 761 mmHg 60%

    28 January, Sunday

    Time Temperature Precipitation Wind Pressure Humidity
    00:00 +5°C° 0 mm 3 mps 761 mmHg 60%
    01:00 +5°C° 0 mm 3 mps 761 mmHg 60%
    02:00 +4°C° 0 mm 3 mps 761 mmHg 59%
    03:00 +4°C° 0 mm 3 mps 761 mmHg 59%
    04:00 +4°C° 0 mm 4 mps 761 mmHg 58%
    05:00 +4°C° 0 mm 4 mps 761 mmHg 58%
    06:00 +3°C° 0 mm 4 mps 761 mmHg 58%
    07:00 +3°C° 0 mm 5 mps 762 mmHg 56%
    08:00 +5°C° 0 mm 5 mps 762 mmHg 54%
    09:00 +5°C° 0 mm 6 mps 762 mmHg 53%
    10:00 +8°C° 0 mm 7 mps 762 mmHg 51%
    11:00 +9°C° 0 mm 8 mps 761 mmHg 49%
    12:00 +11°C° 0 mm 9 mps 761 mmHg 47%
    13:00 +11°C° 0.1 mm 10 mps 760 mmHg 48%
    14:00 +11°C° 0.1 mm 10 mps 760 mmHg 49%
    15:00 +11°C° 0.1 mm 11 mps 759 mmHg 51%
    16:00 +9°C° 0.5 mm 10 mps 759 mmHg 57%
    17:00 +8°C° 0.5 mm 9 mps 759 mmHg 64%
    18:00 +8°C° 0.5 mm 9 mps 759 mmHg 70%
    19:00 +9°C° 1.4 mm 8 mps 759 mmHg 74%
    20:00 +9°C° 1.4 mm 8 mps 759 mmHg 77%
    21:00 +9°C° 1.4 mm 8 mps 760 mmHg 81%
    22:00 +9°C° 1.3 mm 8 mps 759 mmHg 83%
    23:00 +9°C° 1.3 mm 7 mps 759 mmHg 86%
    Show more